Regional Weather Roundup
Issued by NWS Green Bay, WI

Home | Current Version | Previous Version | Graphics & Text | Print | Product List | Glossary Off
Versions: 1 2 3 4 5 6 7 8 9 10 11 12 13 14 15 16 17 18 19 20 21 22 23 24 25 26 27 28 29 30 31 32 33 34 35 36 37 38 39 40 41 42 43 44 45 46 47 48 49 50

000
ASUS43 KGRB 251111
RWRGRB

NORTH-CENTRAL AND NORTHEAST WISCONSIN REGIONAL WEATHER ROUNDUP
NATIONAL WEATHER SERVICE GREEN BAY WI
600 AM CDT TUE APR 25 2017

WIZ005-009-010>012-018-019-251200-
NORTH CENTRAL WISCONSIN

CITY           SKY/WX    TMP DP  RH WIND       PRES   REMARKS
IRONWOOD       CLOUDY    53  34  48 SE12      29.60F
MANITOWISH WTR CLOUDY    48  34  57 SE7       29.62F
ARBOR VITAE    CLOUDY    52  35  52 SE7       29.62F
EAGLE RIVER    CLOUDY    49  31  49 SE6       29.65F
LAND O LAKES   MOCLDY    53  31  44 S9G16     29.67F
RHINELANDER    CLOUDY    52  34  50 SE8       29.65F
PHILLIPS       PTCLDY    51  34  51 SE8       29.59F
ANTIGO         CLOUDY    46  34  64 SE12      29.68S
TOMAHAWK       CLOUDY    50  33  51 SE3       29.64F
MERRILL        PTCLDY    51  34  53 SE6       29.65S
$$

WIZ013-073-251200-
NORTHEAST WISCONSIN

CITY           SKY/WX    TMP DP  RH WIND       PRES   REMARKS
IRON MOUNTAIN  CLOUDY    44  35  70 SE5       29.70F
MARINETTE      MOCLDY    48  38  68 S6        29.73F
OCONTO         CLOUDY    48  39  70 SE8       29.71F
$$

WIZ017-030-035>037-045-251200-
CENTRAL WISCONSIN

CITY           SKY/WX    TMP DP  RH WIND       PRES   REMARKS
MEDFORD        PTCLDY    52  33  49 SE8       29.61S
WAUSAU         PTCLDY    50  34  54 E8        29.63F
MOSINEE        MOCLDY    54  34  47 SE9       29.65S
MARSHFIELD     CLOUDY    54  34  46 SE9       29.61F
WISC RAPIDS    MOCLDY    55  36  48 SE8       29.64S
STEVENS POINT  PTCLDY    53  34  49 SE8       29.65S
WAUPACA        CLOUDY    52  37  56 E6        29.67F
SHAWANO        CLEAR     50  35  57 CALM      29.69F
CLINTONVILLE   CLOUDY    50  34  53 SE5       29.68S
WAUTOMA        CLOUDY    49  37  63 E3        29.66F
$$

WIZ038-039-048-051-251200-
FOX VALLEY

CITY           SKY/WX    TMP DP  RH WIND       PRES   REMARKS
NWS GREEN BAY  CLEAR     51  40  65 S10       29.70F
APPLETON       PTCLDY    52  36  54 SE9       29.67S
OSHKOSH        PTCLDY    53  38  56 SE12      29.67F
FOND DU LAC    CLOUDY    53  37  54 SE13      29.67F
$$

WIZ022-050-052-251200-
EAST CENTRAL WISCONSIN

CITY           SKY/WX    TMP DP  RH WIND       PRES   REMARKS
EPHRAIM        FAIR      47  40  75 SE8       29.73F
WASHINGTON ISL FAIR      46  37  71 SE5       29.74F
STURGEON BAY   CLOUDY    48  39  71 SE10      29.73F
MANITOWOC      CLOUDY    50  38  63 SE12      29.73F
SHEBOYGAN      MOCLDY    49  39  68 S6        29.72F
$$

LMZ563-521-522-541>543-251200-
LAKESHORE

STATION/POSITION TIME  TEMP    WIND        PRES    VSBY  WAVE
                       AIR SEA DIR/SP/G                  HT/PER
                 (UTC) (F)     (DEG/KT/KT) (MB)    (MI)  (FT/S)
SHEBOYGAN LKSHOR 1100   46     180/  8/  9 1006.6F
KEWAUNEE LKSHORE 1048   46     150/  6/  8 1006.6F
NORTHPORT PIER   1040   43     150/  9/ 11 1007.8F
N MID LAKE BUOY  1050   42 37  120/ 10/ 12 1009.1R         1/ 3
CHAMBERS ISLAND  1040   51     130/  6/ 14 1006.4F
MENOMINEE LKSHOR 1048   47     130/  5/  6 1005.9F
$$




USA.gov is the U.S. government's official web portal to all federal, state and local government web resources and services.